[[{"header":{"parameterUnit":"m.s-1","parameterCategory":1,"la1":30.2991,"la2":30.254,"lo1":-89.0895,"lo2":-89.0444,"dy":0.0017,"dx":0.0017,"nx":28,"ny":28,"refTime":"2024-12-21T03:00:00:Z","depth":0,"parameterNumber":2,"parameterNumberName":"U-component_of_WINDS"},"data":[0,0,0,0,0,0,0,0,0,0,0,0,0,0,0,0,0,0,0,0,0,0,0,0,0,0,0,0,0,0,0,0,0,0,0,0,0,0,0,0,0,0,0,0,0,0,0,0,0,0,0,0,0,0,0,0,0,0,-0.5405,-0.5405,0,-0.5437,-0.5437,-0.5437,-0.5411,-0.541,-0.5409,-0.5408,-0.5441,-0.5443,-0.5445,0,0,0,0,0,0,0,0,0,0,0,0,0,-0.5321,-0.5323,-0.5405,-0.5405,-0.5405,-0.5436,-0.5437,-0.5437,-0.5411,-0.541,-0.5408,-0.5407,-0.5441,-0.5443,-0.5445,0,0,0,0,0,0,0,0,0,0,0,0,0,-0.5355,-0.5323,-0.5405,-0.5396,-0.5396,-0.5436,-0.5437,-0.5437,-0.5411,-0.541,-0.5408,-0.5406,-0.544,-0.5443,-0.5446,-0.5497,0,0,-0.5455,-0.5456,0,0,0,0,0,0,0,0,-0.5354,-0.5359,-0.5397,-0.5397,-0.5396,-0.5418,-0.542,-0.5457,-0.5412,-0.5405,-0.5408,-0.5406,-0.5435,-0.5438,-0.5448,-0.5499,-0.55,-0.5455,-0.5457,-0.5458,-0.5459,0,0,0,0,0,0,0,-0.5351,-0.5357,-0.5417,-0.5397,-0.5397,-0.5391,-0.5394,-0.5427,-0.5429,-0.5406,-0.5404,-0.5408,-0.5435,-0.5445,-0.5449,-0.5501,-0.5455,-0.5457,-0.5459,-0.546,-0.5594,-0.5595,0,0,0,0,0,0,-0.535,-0.5355,-0.5416,-0.5418,-0.537,-0.5393,-0.5397,-0.5413,-0.5429,-0.543,-0.5409,-0.5407,-0.5441,-0.5445,-0.545,-0.551,-0.5458,-0.5461,-0.5462,-0.5592,-0.5594,-0.5596,0,0,0,0,0,0,-0.5348,-0.5355,-0.5415,-0.5386,-0.5393,-0.5397,-0.5415,-0.5414,-0.5425,-0.5431,-0.5432,-0.542,-0.544,-0.5446,-0.5485,-0.5511,-0.5462,-0.5465,-0.559,-0.5593,-0.5595,-0.5632,0,0,0,0,0,0,-0.5346,-0.5355,-0.5375,-0.5387,-0.5395,-0.545,-0.5416,-0.5416,-0.543,-0.5426,-0.5441,-0.5442,-0.5439,-0.5481,-0.5488,-0.5514,-0.5467,-0.5587,-0.5591,-0.5594,-0.5629,-0.5636,-0.5642,0,0,0,0,0,-0.5343,-0.5384,-0.5376,-0.5383,-0.542,-0.5452,-0.5456,-0.5451,-0.5432,-0.5452,-0.5456,-0.5442,-0.5507,-0.5485,-0.5493,-0.552,-0.5586,-0.559,-0.5594,-0.5626,-0.5635,-0.5642,0,0,0,0,0,0,-0.5376,-0.5386,-0.5376,-0.5423,-0.5437,-0.5447,-0.5472,-0.5461,-0.5481,-0.5477,-0.547,-0.5474,-0.5515,-0.5522,-0.5497,-0.557,-0.5543,-0.5549,-0.5565,-0.5573,-0.558,-0.5578,-0.5469,0,0,0,0,0,-0.5389,-0.5414,-0.5421,-0.5461,-0.5469,-0.5469,-0.5483,-0.5478,-0.5492,-0.5497,-0.5504,-0.5519,-0.5542,-0.5558,-0.558,-0.5629,-0.5632,-0.5652,-0.5658,-0.5664,-0.5669,-0.5695,-0.5704,-0.5609,-0.5609,-0.5609,0,0,-0.5415,-0.5424,-0.544,-0.5468,-0.5478,-0.5504,-0.5474,-0.5503,-0.5523,-0.5502,-0.554,-0.5545,-0.556,-0.5605,-0.5625,-0.5611,-0.5695,-0.5669,-0.5673,-0.5676,-0.57,-0.5709,-0.5717,-0.5612,-0.5611,-0.5611,0,0,-0.5477,-0.5486,-0.5521,-0.5531,-0.5545,-0.5545,-0.5553,-0.5565,-0.5568,-0.5605,-0.559,-0.5612,-0.5653,-0.5664,-0.5676,-0.574,-0.5727,-0.5747,-0.5782,-0.5807,-0.5815,-0.5821,-0.5844,-0.5852,-0.5752,-0.5752,-0.5752,0,-0.5509,-0.5547,-0.554,-0.557,-0.5582,-0.5564,-0.5598,-0.5608,-0.563,-0.5639,-0.5623,-0.5673,-0.5682,-0.5729,-0.5744,-0.5754,-0.5763,-0.5746,-0.5814,-0.5821,-0.5827,-0.5848,-0.5857,-0.5754,-0.5754,-0.5754,-0.5754,0,-0.5585,-0.5612,-0.5638,-0.5658,-0.5674,-0.5706,-0.5703,-0.5719,-0.5712,-0.5714,-0.5751,-0.5761,-0.5784,-0.5795,-0.5789,-0.584,-0.5831,-0.5815,-0.5788,-0.5838,-0.5858,-0.5866,-0.5758,-0.5757,-0.5756,-0.5756,0,0,-0.5671,-0.5685,-0.5695,-0.5704,-0.5718,-0.5738,-0.5769,-0.5791,-0.5805,-0.582,-0.5845,-0.5879,-0.5864,-0.5876,-0.5871,-0.5893,-0.5942,-0.5874,-0.5874,-0.5886,-0.5999,-0.6012,-0.6021,-0.5934,-0.5935,-0.5937,-0.5998,0,-0.5734,-0.5787,-0.578,-0.5831,-0.5856,-0.5837,-0.5864,-0.5875,-0.5877,-0.5897,-0.5899,-0.5923,-0.5901,-0.5908,-0.5929,-0.5932,-0.5965,-0.5927,-0.5958,-0.5959,-0.5955,-0.6032,-0.6046,-0.6103,-0.6006,-0.6007,-0.6008,0,-0.5814,-0.5831,-0.5885,-0.5894,-0.5903,-0.5928,-0.5947,-0.5966,-0.5979,-0.5978,-0.5991,-0.5981,-0.6012,-0.5983,-0.6024,-0.5999,-0.601,-0.6013,-0.6016,-0.6019,-0.5987,-0.6038,-0.6121,-0.613,-0.602,-0.6019,-0.6018,0,-0.5872,-0.5907,-0.5944,-0.5952,-0.5963,-0.598,-0.5986,-0.5996,-0.6009,-0.6026,-0.6034,-0.6054,-0.6065,-0.6081,-0.6076,-0.6056,-0.6118,-0.609,-0.6119,-0.6119,-0.6134,-0.6133,-0.6221,-0.6141,-0.614,-0.614,-0.614,0,-0.5943,-0.5976,-0.5969,-0.5992,-0.6028,-0.602,-0.6056,-0.6059,-0.6068,-0.6091,-0.6076,-0.6097,-0.609,-0.6111,-0.6107,-0.6142,-0.6147,-0.6147,-0.6146,-0.6149,-0.6149,-0.6157,-0.6154,-0.6143,-0.6142,-0.6142,-0.6141,0,-0.6013,-0.601,-0.6049,-0.6056,-0.6058,-0.6085,-0.6091,-0.6112,-0.6111,-0.614,-0.6146,-0.6145,-0.6169,-0.6165,-0.6192,-0.619,-0.6233,-0.6226,-0.6229,-0.6227,-0.6257,-0.6254,-0.6354,-0.6366,-0.6277,-0.6278,-0.6279,0,-0.6059,-0.6084,-0.6094,-0.6107,-0.6114,-0.6136,-0.6149,-0.6141,-0.6156,-0.617,-0.6189,-0.6211,-0.6228,-0.6267,-0.6269,-0.6289,-0.6283,-0.6316,-0.6286,-0.6288,-0.6284,-0.6282,-0.6285,-0.6323,-0.6324,-0.6325,-0.6325,0,-0.6141,-0.6138,-0.6157,-0.6176,-0.6191,-0.6205,-0.6218,-0.623,-0.6223,-0.624,-0.6263,-0.6276,-0.6303,-0.6325,-0.6343,-0.6348,-0.6336,-0.6334,-0.6342,-0.6346,-0.6346,-0.6346,-0.6245,-0.6333,-0.6332,-0.6331,-0.6331,-0.6331,-0.6201,-0.6222,-0.6232,-0.6253,-0.6261,-0.6273,-0.6293,-0.6294,-0.6314,-0.6334,-0.6328,-0.6354,-0.6364,-0.6387,-0.6395,-0.6415,-0.6403,-0.6414,-0.6417,-0.642,-0.6424,-0.6342,-0.6418,-0.6418,-0.6418,-0.6418,-0.6418,0,-0.6282,-0.6287,-0.6307,-0.6324,-0.6341,-0.6326,-0.6339,-0.6354,-0.6378,-0.6388,-0.6405,-0.6431,-0.6452,-0.6455,-0.6474,-0.649,-0.6485,-0.6495,-0.6495,-0.6496,-0.6434,-0.6425,-0.6499,-0.6499,-0.6499,-0.6499,-0.6499,-0.6499,-0.6327,-0.6361,-0.6359,-0.6397,-0.6401,-0.6427,-0.6435,-0.6446,-0.6454,-0.6484,-0.6501,-0.6502,-0.6509,-0.6529,-0.6547,-0.6547,-0.6555,-0.6568,-0.6566,-0.6508,-0.65,-0.6493,-0.6484,-0.657,-0.657,-0.6626,-0.6627,-0.6627]},{"header":{"parameterUnit":"m.s-1","parameterCategory":1,"la1":30.2991,"la2":30.254,"lo1":-89.0895,"lo2":-89.0444,"dy":0.0017,"dx":0.0017,"nx":28,"ny":28,"refTime":"2024-12-21T03:00:00:Z","depth":0,"parameterNumber":3,"parameterNumberName":"V-component_of_WINDS"},"data":[0,0,0,0,0,0,0,0,0,0,0,0,0,0,0,0,0,0,0,0,0,0,0,0,0,0,0,0,0,0,0,0,0,0,0,0,0,0,0,0,0,0,0,0,0,0,0,0,0,0,0,0,0,0,0,0,0,0,-5.5158,-5.5159,0,-5.5276,-5.5277,-5.5278,-5.5206,-5.5202,-5.5199,-5.5196,-5.5312,-5.5318,-5.5324,0,0,0,0,0,0,0,0,0,0,0,0,0,-5.4865,-5.487,-5.5158,-5.5159,-5.5161,-5.5275,-5.5277,-5.5279,-5.5206,-5.5202,-5.5198,-5.5194,-5.531,-5.5317,-5.5325,0,0,0,0,0,0,0,0,0,0,0,0,0,-5.4988,-5.4872,-5.5157,-5.5139,-5.5138,-5.5275,-5.5277,-5.5279,-5.5207,-5.5202,-5.5197,-5.5192,-5.5307,-5.5317,-5.5326,-5.5487,0,0,-5.5355,-5.5359,0,0,0,0,0,0,0,0,-5.4981,-5.4999,-5.514,-5.514,-5.514,-5.5221,-5.5216,-5.5349,-5.5209,-5.5181,-5.5196,-5.519,-5.5285,-5.5296,-5.533,-5.5492,-5.5497,-5.5355,-5.5361,-5.5365,-5.5368,0,0,0,0,0,0,0,-5.4973,-5.4993,-5.5204,-5.5142,-5.5142,-5.5122,-5.5134,-5.5241,-5.526,-5.5183,-5.5178,-5.5193,-5.5284,-5.5321,-5.5332,-5.5499,-5.5355,-5.5364,-5.5369,-5.5373,-5.5797,-5.5802,0,0,0,0,0,0,-5.4966,-5.4987,-5.52,-5.5208,-5.5046,-5.5132,-5.5145,-5.52,-5.5259,-5.5263,-5.5197,-5.5189,-5.5307,-5.5321,-5.5336,-5.5527,-5.5365,-5.5374,-5.5379,-5.5791,-5.5798,-5.5804,0,0,0,0,0,0,-5.496,-5.4986,-5.5196,-5.5096,-5.5121,-5.5142,-5.5204,-5.5205,-5.5241,-5.527,-5.5273,-5.5231,-5.5304,-5.5322,-5.545,-5.553,-5.5378,-5.5387,-5.5785,-5.5793,-5.5801,-5.5911,0,0,0,0,0,0,-5.4952,-5.4984,-5.5047,-5.5098,-5.5127,-5.531,-5.5209,-5.5211,-5.5258,-5.5249,-5.5303,-5.5306,-5.5301,-5.5436,-5.5459,-5.554,-5.5394,-5.5778,-5.5789,-5.5799,-5.59,-5.5922,-5.5941,0,0,0,0,0,-5.4942,-5.5073,-5.5051,-5.5077,-5.5206,-5.5315,-5.5331,-5.5323,-5.5265,-5.5327,-5.5345,-5.5305,-5.5517,-5.545,-5.5475,-5.556,-5.5773,-5.5786,-5.5798,-5.5891,-5.5918,-5.594,0,0,0,0,0,0,-5.503,-5.5079,-5.5055,-5.5207,-5.5257,-5.5302,-5.5381,-5.5352,-5.5419,-5.5407,-5.5393,-5.5406,-5.5538,-5.5562,-5.5485,-5.5717,-5.5635,-5.5654,-5.5698,-5.5723,-5.5743,-5.5734,-5.5402,0,0,0,0,0,-5.5067,-5.5152,-5.519,-5.532,-5.5347,-5.536,-5.5407,-5.5396,-5.5447,-5.5468,-5.5495,-5.5545,-5.5623,-5.5674,-5.5747,-5.5903,-5.5912,-5.5974,-5.5994,-5.601,-5.6026,-5.6108,-5.6135,-5.5846,-5.5846,-5.5845,0,0,-5.5144,-5.5182,-5.5236,-5.5339,-5.5377,-5.5464,-5.5378,-5.5474,-5.5538,-5.5482,-5.5604,-5.5626,-5.568,-5.5822,-5.5886,-5.5845,-5.6108,-5.6026,-5.6039,-5.6046,-5.6124,-5.6151,-5.6176,-5.5854,-5.5853,-5.5851,0,0,-5.5329,-5.5367,-5.5479,-5.5519,-5.5577,-5.5585,-5.5611,-5.5661,-5.5674,-5.5796,-5.5755,-5.583,-5.5965,-5.6005,-5.6043,-5.6242,-5.6206,-5.6266,-5.6371,-5.6452,-5.6474,-5.6494,-5.6564,-5.6589,-5.6281,-5.6282,-5.6282,0,-5.5417,-5.5549,-5.5539,-5.5639,-5.5684,-5.5638,-5.575,-5.5789,-5.5868,-5.5899,-5.5853,-5.602,-5.6054,-5.6203,-5.6252,-5.6285,-5.6313,-5.626,-5.6472,-5.6492,-5.6511,-5.6577,-5.6603,-5.6289,-5.6288,-5.6287,-5.6286,0,-5.5654,-5.5745,-5.5828,-5.5907,-5.5961,-5.6066,-5.6071,-5.6127,-5.6112,-5.6123,-5.6247,-5.6286,-5.6365,-5.64,-5.6386,-5.6548,-5.652,-5.6474,-5.6391,-5.6545,-5.6607,-5.6633,-5.6298,-5.6296,-5.6294,-5.6292,0,0,-5.5898,-5.597,-5.6,-5.6035,-5.6095,-5.6165,-5.6267,-5.6346,-5.6394,-5.6449,-5.6533,-5.6648,-5.6604,-5.6647,-5.6637,-5.6708,-5.6861,-5.6652,-5.6653,-5.6688,-5.7039,-5.7074,-5.7103,-5.6838,-5.6843,-5.6846,-5.7034,0,-5.6086,-5.6266,-5.626,-5.6427,-5.651,-5.6467,-5.6555,-5.6601,-5.6614,-5.6685,-5.6699,-5.678,-5.6718,-5.6743,-5.6811,-5.6828,-5.6931,-5.6814,-5.6914,-5.6917,-5.6901,-5.7136,-5.7173,-5.7349,-5.7059,-5.7063,-5.7066,0,-5.633,-5.6395,-5.657,-5.6617,-5.6652,-5.6732,-5.6803,-5.6872,-5.6922,-5.6927,-5.6975,-5.6952,-5.7053,-5.6968,-5.7106,-5.7027,-5.7067,-5.7081,-5.7087,-5.7096,-5.7001,-5.715,-5.7405,-5.7431,-5.7104,-5.7101,-5.7098,0,-5.6489,-5.662,-5.6742,-5.6773,-5.6831,-5.6888,-5.6915,-5.696,-5.7007,-5.7068,-5.7099,-5.7171,-5.721,-5.7265,-5.7262,-5.7201,-5.7401,-5.7316,-5.7406,-5.7406,-5.745,-5.7447,-5.7714,-5.7478,-5.7477,-5.7477,-5.7476,0,-5.6699,-5.6808,-5.6814,-5.6889,-5.7008,-5.6999,-5.7117,-5.7138,-5.7178,-5.7255,-5.7221,-5.7293,-5.7285,-5.7357,-5.7355,-5.7469,-5.7487,-5.7492,-5.749,-5.7495,-5.7494,-5.752,-5.7508,-5.7484,-5.7482,-5.7481,-5.7479,0,-5.6897,-5.6906,-5.7035,-5.708,-5.7094,-5.718,-5.7217,-5.7287,-5.7297,-5.7394,-5.7416,-5.7431,-5.7514,-5.7517,-5.7612,-5.761,-5.7748,-5.7733,-5.7732,-5.7729,-5.7818,-5.7809,-5.8111,-5.8149,-5.7888,-5.7891,-5.7893,0,-5.7031,-5.7114,-5.7167,-5.7217,-5.7247,-5.7327,-5.7375,-5.7369,-5.742,-5.7483,-5.7545,-5.7624,-5.7688,-5.7822,-5.784,-5.7912,-5.7897,-5.7998,-5.7908,-5.791,-5.7898,-5.7892,-5.79,-5.8015,-5.8018,-5.8021,-5.8023,0,-5.7266,-5.7266,-5.7338,-5.7411,-5.747,-5.7527,-5.758,-5.7622,-5.7621,-5.768,-5.7765,-5.7814,-5.7911,-5.799,-5.8059,-5.8084,-5.8053,-5.8051,-5.8075,-5.8081,-5.8076,-5.8079,-5.7779,-5.8044,-5.8042,-5.804,-5.8039,-5.8038,-5.7435,-5.7506,-5.7555,-5.7636,-5.7675,-5.7725,-5.7792,-5.7811,-5.7882,-5.7961,-5.7952,-5.8046,-5.8092,-5.8182,-5.8213,-5.8285,-5.825,-5.8286,-5.8295,-5.8303,-5.8313,-5.8066,-5.8298,-5.8297,-5.8297,-5.8296,-5.8296,0,-5.7668,-5.7697,-5.7772,-5.7847,-5.791,-5.7876,-5.7932,-5.7986,-5.807,-5.8116,-5.818,-5.8276,-5.8352,-5.8377,-5.845,-5.8503,-5.849,-5.8522,-5.8517,-5.8523,-5.834,-5.8311,-5.8531,-5.8531,-5.8531,-5.8531,-5.8531,-5.8531,-5.7797,-5.7915,-5.792,-5.8056,-5.8084,-5.8177,-5.8212,-5.8257,-5.8293,-5.8403,-5.8467,-5.8483,-5.8519,-5.8595,-5.8662,-5.8667,-5.8695,-5.8733,-5.8732,-5.856,-5.8537,-5.8514,-5.8487,-5.8739,-5.874,-5.8909,-5.891,-5.8911]}]]